Location: Cruquius
(52.3348°N, 4.6319°E)
Time: 08:59:29
(UTC+00:00)

Cosmos 1666 - Pass Details

Date: 12 May 2021
Orbit: 495 x 519 km, 82.5° (Epoch: 15 June)

Event Time Altitude Azimuth Distance (km) Brightness Sun altitude
Rises 20:34:17 0° 351° (N) 2,605 7.3 -8.9°
Reaches altitude 10° 20:36:26 10° 356° (N) 1,714 6.2 -9.1°
Maximum altitude 20:40:08 60° 76° (ENE) 577 2.8 -9.5°
Enters shadow 20:43:24 13° 156° (SSE) 1,527 4.5 -9.8°
